Tracking 18852 objects as of 24-Nov-2017
HD Live streaming from Space Station
objects crossing your sky now

COSMOS 1652 (GLONASS)

Track COSMOS 1652 (GLONASS) now!
COSMOS 1652 (GLONASS) is classified as:


NORAD ID: 15699
Int'l Code: 1985-037C
Perigee: 19,097.2 km
Apogee: 19,182.4 km
Inclination: 64.1 °
Period: 675.8 minutes
Semi major axis: 25510 km
RCS: 0.3 m2 (medium)
Launch date: May 17, 1985
Source: Commonwealth of Independent States (former USSR) (CIS)
Launch site: TYURATAM MISSILE AND SPACE COMPLEX (TTMTR)
SV:
aabbcc
Your satellite tracking list
Your tracking list is empty




NASA's NSSDC Master Catalog

Two Line Element Set (TLE):
1 15699U 85037C   17327.82169198 +.00000062 +00000-0 +00000-0 0  9995
2 15699 064.0873 180.5899 0016691 014.7532 287.0096 02.13067608253022
Source of the keplerian elements: AFSPC